VK5TRM-14 Weather Reports


time (UTC)temp
F
wind
direction
speed
knots
gust
knots
rain 1hr
in
rain 24hr
in
rain mn
in
humidity
%
barometer
mb
20260505064505 63 225 2.6 6.1 0.00 0.00 0.00 68 1023.0
20260505063005 62 225 2.6 6.1 0.00 0.00 0.00 69 1022.9
20260505061504 62 225 2.6 6.1 0.00 0.00 0.00 69 1022.9
20260505060005 62 225 5.2 8.7 0.00 0.00 0.00 69 1022.8
20260505054505 62 225 5.2 8.7 0.00 0.00 0.00 69 1022.8
20260505053005 62 225 5.2 7.0 0.00 0.00 0.00 66 1022.6
20260505051505 62 225 5.2 7.0 0.00 0.00 0.00 66 1022.6
20260505041505 62 247 4.3 6.1 0.00 0.00 0.00 70 1022.6
20260505040005 61 225 5.2 7.0 0.00 0.00 0.00 70 1022.8
20260505034505 61 225 5.2 7.0 0.00 0.00 0.00 70 1022.8
20260505033005 61 225 7.0 10.4 0.00 0.00 0.00 70 1023.0
20260505031505 61 225 7.0 10.4 0.00 0.00 0.00 70 1023.0
20260505030005 62 247 6.1 7.8 0.00 0.00 0.00 70 1023.4
20260505024505 62 247 6.1 7.8 0.00 0.00 0.00 70 1023.4
20260505023005 60 225 5.2 7.0 0.00 0.00 0.00 74 1023.6
20260505021505 60 225 5.2 7.0 0.00 0.00 0.00 74 1023.6
20260505020005 60 202 4.3 6.1 0.00 0.00 0.00 73 1023.8
20260505014505 60 202 4.3 6.1 0.00 0.00 0.00 73 1023.8
20260505013005 60 202 7.0 8.7 0.00 0.00 0.00 73 1023.6
20260505011505 60 202 7.0 8.7 0.00 0.00 0.00 73 1023.6
20260505010005 60 202 6.1 8.7 0.00 0.00 0.00 75 1023.4
20260505004505 60 202 6.1 8.7 0.00 0.00 0.00 75 1023.4
20260505003005 59 225 6.1 7.8 0.00 0.00 0.00 81 1023.4
20260505001505 59 225 6.1 7.8 0.00 0.00 0.00 81 1023.4
20260505000005 56 225 7.0 7.8 0.00 0.00 0.00 86 1023.2
20260504234505 56 225 7.0 7.8 0.00 0.00 0.00 86 1023.2
20260504233005 55 247 5.2 7.0 0.00 0.00 0.00 92 1023.2
20260504231505 55 247 5.2 7.0 0.00 0.00 0.00 92 1023.2
20260504230005 52 270 5.2 6.1 0.00 0.00 0.00 96 1022.9
20260504224505 52 270 5.2 6.1 0.00 0.00 0.00 96 1022.9
20260504223005 49 270 4.3 5.2 0.00 0.00 0.00 97 1022.4
20260504221505 49 270 4.3 5.2 0.00 0.00 0.00 97 1022.4
20260504220005 47 270 5.2 7.0 0.00 0.00 0.00 97 1022.0
20260504214505 47 270 5.2 7.0 0.00 0.00 0.00 97 1022.0
20260504213004 46 270 4.3 4.3 0.00 0.00 0.00 97 1021.5
20260504211505 46 270 4.3 4.3 0.00 0.00 0.00 97 1021.5
20260504210005 46 270 4.3 5.2 0.00 0.00 0.00 97 1021.2
20260504204505 46 270 4.3 5.2 0.00 0.00 0.00 97 1021.2
20260504203005 45 270 5.2 5.2 0.00 0.00 0.00 96 1021.1
20260504201505 45 270 5.2 5.2 0.00 0.00 0.00 96 1021.1
20260504200006 46 270 4.3 4.3 0.00 0.00 0.00 96 1020.9
20260504194505 46 270 4.3 4.3 0.00 0.00 0.00 96 1020.9
20260504193005 47 270 4.3 4.3 0.00 0.00 0.00 96 1020.6
20260504191505 47 270 4.3 4.3 0.00 0.00 0.00 96 1020.6
20260504190005 47 270 5.2 6.1 0.00 0.00 0.00 95 1020.4
20260504184505 47 270 5.2 6.1 0.00 0.00 0.00 95 1020.4
20260504183005 48 270 4.3 5.2 0.00 0.00 0.00 95 1020.4
20260504181505 48 270 4.3 5.2 0.00 0.00 0.00 95 1020.4
20260504180005 49 292 6.1 7.0 0.00 0.00 0.00 94 1020.3
20260504174505 49 292 6.1 7.0 0.00 0.00 0.00 94 1020.3
20260504173005 48 270 5.2 6.1 0.00 0.00 0.00 94 1020.4
20260504171506 48 270 5.2 6.1 0.00 0.00 0.00 94 1020.4
20260504081505 64 315 7.8 11.3 0.00 0.00 0.00 60 1015.7